sat.trackr.live / text

‹ back to catalog

SITRO-AIS 43

NORAD 61755 · 2024-199W

PAYLOAD ACTIVE UNKNOWN

§ Identity

Operator
Country
CIS
Launch date
2024-11-04
Launch site
VOSTO
Launch vehicle
Mass (kg)
RCS (m²)

External: N2YO · Heavens-Above · Gunter

§ Orbital elements

Epoch: 2026-09-22T22:06:38.858976Z

Period
89.84 min
Inclination
97.2689°
Eccentricity
0.0005063
Mean motion
16.02908713 rev/d
Perigee alt
263.0 km
Apogee alt
269.7 km
Semi-major
6,644.5 km
B*
9.4696e-4
RAAN
150.7956°
Arg perigee
169.0652°
Mean anomaly
191.0739°
Rev number
15,323

§ Raw data

SITRO-AIS 431 61755U 24199W   26265.92128309  .00566634  15022-3  94696-3 0  99942 61755  97.2689 150.7956 0005063 169.0652 191.0739 16.02908713153234

JSON: /api/v1/satellites/61755 · /tle

For live sub-satellite position, see the globe view (requires WebGL).

§ Visibility from observer

Set your observer location to see the next 7 days of passes ≥ 10°. The values pass through the URL so the page stays shareable.

No JS? Fill the form by hand. The geolocation button needs JavaScript.

§ Radio — SatNOGS DB

ModeDescriptionDownlinkUplink
GMSK USP Mode U - GMSK2k4 - USP 401.145 MHz

1 transmitter · refreshed weekly from db.satnogs.org